Location: Most
(50.5133°N, 13.6207°E)
Time: 10:50:59
(UTC+01:00)

Oscar 11 - Pass Details

Date: 28 November 2022
Orbit: 611 x 621 km, 97.6° (Epoch: 28 January)

Event Time Altitude Azimuth Distance (km) Brightness Sun altitude
Rises 05:55:11 0° 5° (N) 2,894 10.4 -16.0°
Reaches altitude 10° 05:57:37 10° 353° (N) 1,983 9.4 -15.6°
Maximum altitude 06:01:14 27° 296° (WNW) 1,190 7.9 -15.1°
Enters shadow 06:02:08 25° 274° (W) 1,253 8.0 -14.9°
